TimeGMT,TemperatureF,Dew PointF,Humidity,Sea Level PressureIn,VisibilityMPH,Wind Direction,Wind SpeedMPH,Gust SpeedMPH,PrecipitationIn,Events,Conditions,WindDirDegrees,DateUTC
12:00 AM,52,51,96,30.00,12,West,17.3,,,Rain,Light Drizzle,270,2012-12-03 00:00:00
3:00 AM,53,52,96,29.96,3,WSW,19.6,,,Rain,Light Rain,250,2012-12-03 03:00:00
3:50 AM,51.8,51.8,100,29.92,2.2,WSW,25.3,-,N/A,Rain,Rain,250,2012-12-03 03:50:00
4:20 AM,51.8,51.8,100,29.92,1.9,WSW,24.2,-,N/A,Rain,Light Rain,250,2012-12-03 04:20:00
4:50 AM,51.8,51.8,100,29.92,1.4,WSW,26.5,-,N/A,Rain,Light Rain,250,2012-12-03 04:50:00
5:20 AM,53.6,53.6,100,29.92,3.1,West,25.3,-,N/A,,Light Drizzle,260,2012-12-03 05:20:00
5:50 AM,53.6,53.6,100,29.89,1.2,West,26.5,-,N/A,,Drizzle,260,2012-12-03 05:50:00
6:00 AM,53,53,100,29.91,1,West,26.5,,,Rain,Drizzle,260,2012-12-03 06:00:00
6:20 AM,53.6,53.6,100,29.89,6.2,West,27.6,-,N/A,,Light Drizzle,260,2012-12-03 06:20:00
6:50 AM,53.6,53.6,100,29.89,6.2,West,24.2,-,N/A,,Mostly Cloudy,260,2012-12-03 06:50:00
7:20 AM,51.8,51.8,100,29.89,6.2,West,25.3,-,N/A,,Scattered Clouds,270,2012-12-03 07:20:00
7:50 AM,51.8,50.0,94,29.92,6.2,West,23.0,-,N/A,,Scattered Clouds,280,2012-12-03 07:50:00
8:20 AM,51.8,50.0,94,29.92,6.2,West,23.0,-,N/A,,Scattered Clouds,280,2012-12-03 08:20:00
8:50 AM,51.8,50.0,94,29.92,6.2,West,26.5,-,N/A,,Scattered Clouds,280,2012-12-03 08:50:00
9:00 AM,52,49,88,29.92,11,West,26.5,,,,Partly Cloudy,280,2012-12-03 09:00:00
9:20 AM,51.8,48.2,88,29.92,6.2,West,26.5,38.0,N/A,,Scattered Clouds,270,2012-12-03 09:20:00
9:50 AM,51.8,44.6,76,29.92,6.2,West,27.6,-,N/A,,Scattered Clouds,280,2012-12-03 09:50:00
10:20 AM,51.8,42.8,71,29.92,6.2,West,27.6,-,N/A,,Scattered Clouds,280,2012-12-03 10:20:00
10:50 AM,50.0,44.6,82,29.92,6.2,West,25.3,-,N/A,,Scattered Clouds,280,2012-12-03 10:50:00
11:20 AM,50.0,44.6,82,29.92,6.2,West,26.5,-,N/A,,Scattered Clouds,280,2012-12-03 11:20:00
11:50 AM,50.0,44.6,82,29.92,6.2,West,23.0,-,N/A,,Scattered Clouds,280,2012-12-03 11:50:00
12:00 PM,51,44,71,29.94,12,West,23.0,,,,Partly Cloudy,280,2012-12-03 12:00:00
12:20 PM,50.0,42.8,76,29.92,6.2,West,23.0,-,N/A,,Partly Cloudy,270,2012-12-03 12:20:00
12:50 PM,50.0,42.8,76,29.92,6.2,West,19.6,-,N/A,,Partly Cloudy,280,2012-12-03 12:50:00
1:20 PM,50.0,42.8,76,29.92,6.2,West,17.3,-,N/A,,Partly Cloudy,270,2012-12-03 13:20:00
1:50 PM,50.0,42.8,76,29.89,6.2,West,15.0,-,N/A,,Partly Cloudy,270,2012-12-03 13:50:00
2:20 PM,50.0,42.8,76,29.89,6.2,West,13.8,-,N/A,,Partly Cloudy,260,2012-12-03 14:20:00
2:50 PM,50.0,42.8,76,29.86,6.2,West,15.0,-,N/A,,Scattered Clouds,260,2012-12-03 14:50:00
3:00 PM,50,43,71,29.89,19,West,15.0,,,,Partly Cloudy,260,2012-12-03 15:00:00
3:20 PM,50.0,42.8,76,29.86,6.2,West,11.5,-,N/A,,Scattered Clouds,260,2012-12-03 15:20:00
3:50 PM,50.0,44.6,82,29.83,6.2,WSW,6.9,-,N/A,Rain,Light Rain,250,2012-12-03 15:50:00
4:20 PM,48.2,44.6,87,29.83,5.0,WSW,10.4,-,N/A,Rain,Rain,240,2012-12-03 16:20:00
4:50 PM,46.4,44.6,93,29.83,6.2,West,9.2,-,N/A,Rain,Light Rain,260,2012-12-03 16:50:00
5:20 PM,46.4,44.6,93,29.80,5.0,West,11.5,-,N/A,Rain,Rain,270,2012-12-03 17:20:00
5:50 PM,46.4,44.6,93,29.80,5.6,WSW,4.6,-,N/A,Rain,Light Rain,250,2012-12-03 17:50:00
6:00 PM,46,45,93,29.81,6,WSW,4.6,,,Rain,Light Rain,250,2012-12-03 18:00:00
6:20 PM,46.4,44.6,93,29.77,3.7,NW,4.6,-,N/A,Rain,Rain,310,2012-12-03 18:20:00
6:50 PM,44.6,44.6,100,29.77,2.5,NNW,16.1,27.6,N/A,Rain,Rain,330,2012-12-03 18:50:00
7:20 PM,44.6,42.8,93,29.80,5.0,NNW,18.4,-,N/A,Rain,Rain,340,2012-12-03 19:20:00
7:50 PM,44.6,42.8,93,29.80,6.2,NNW,13.8,-,N/A,,Scattered Clouds,330,2012-12-03 19:50:00
8:20 PM,44.6,41.0,87,29.80,6.2,NW,12.7,-,N/A,,Mostly Cloudy,310,2012-12-03 20:20:00
8:50 PM,44.6,41.0,87,29.80,6.2,WNW,17.3,-,N/A,,Scattered Clouds,290,2012-12-03 20:50:00
9:00 PM,45,40,78,29.81,28,WNW,17.3,,,,Partly Cloudy,290,2012-12-03 21:00:00
9:20 PM,46.4,41.0,81,29.77,6.2,WNW,16.1,-,N/A,,Scattered Clouds,290,2012-12-03 21:20:00